Regional Weather Roundup
Issued by NWS

Home | Current Version | Previous Version | Graphics & Text | Print | Product List | Glossary Off
Versions: 1 2 3 4 5 6 7 8 9 10 11 12 13 14 15 16 17 18 19 20 21 22 23 24 25 26 27 28 29 30 31 32 33 34 35 36 37 38 39 40 41 42 43 44 45 46 47 48 49 50

000
ASUS43 KMKX 241410
RWRWI

WISCONSIN REGIONAL WEATHER ROUNDUP
NATIONAL WEATHER SERVICE MILWAUKEE/SULLIVAN WI
900 AM CDT THU JUL 24 2014

NOTE: "FAIR" INDICATES FEW OR NO CLOUDS BELOW 12,000 FEET WITH NO
SIGNIFICANT WEATHER AND/OR OBSTRUCTIONS TO VISIBILITY.

WIZ001-002-006>008-014>016-023>028-241500-
NORTHWEST WISCONSIN

CITY           SKY/WX    TMP DP  RH WIND       PRES   REMARKS
SUPERIOR ARPT  MOSUNNY   61  56  84 NE3       30.15F
ASHLAND        SUNNY     65  56  72 CALM      30.16F
HAYWARD        SUNNY     67  54  63 S6        30.16F
SIREN          SUNNY     68  54  60 S6        30.15S
RICE LAKE      SUNNY     63  54  72 SE5       30.18F
LADYSMITH      MOSUNNY   63  56  80 E5        30.19F
EAU CLAIRE     SUNNY     67  56  67 SE5       30.15F
MENOMONIE      SUNNY     65  56  75 SE3       30.17S
NEW RICHMOND   SUNNY     69  55  60 S5        30.16S
OSCEOLA        SUNNY     69  57  66 SE3       30.18R
$$

WIZ003>005-009-010-017-018-241500-
NORTH CENTRAL WISCONSIN

CITY           SKY/WX    TMP DP  RH WIND       PRES   REMARKS
WOODRUFF       SUNNY     64  56  75 CALM      30.18F
RHINELANDER    SUNNY     62  52  69 SW8       30.20F
EAGLE RIVER    SUNNY     60  52  74 W5        30.20S
LAND O LAKES   SUNNY     60  54  79 CALM      30.21F
PHILLIPS       SUNNY     62  55  78 CALM      30.18F
TOMAHAWK       SUNNY     60  51  73 CALM      30.20F
MEDFORD        SUNNY     61  56  83 S5        30.18F
MERRILL        SUNNY     61  53  75 CALM      30.19F
$$

WIZ029-030-035-036-043>047-241500-
CENTRAL WISCONSIN

CITY           SKY/WX    TMP DP  RH WIND       PRES   REMARKS
WAUSAU         SUNNY     65  50  58 VRB6      30.17F
MOSINEE        SUNNY     64  50  59 S5        30.19F
MARSHFIELD     SUNNY     65  53  65 S7        30.18F
STEVENS POINT  SUNNY     64  47  54 S6        30.19F
WAUPACA        SUNNY     66  51  57 CALM      30.20F
WAUTOMA        SUNNY     67  51  56 S5        30.20S
WISC RAPIDS    MOSUNNY   66  49  54 S5        30.19F
CAMP DOUGLAS   NOT AVBL
$$

WIZ011>013-019>022-031-037>040-048>050-241500-
NORTHEAST WISCONSIN

CITY           SKY/WX    TMP DP  RH WIND       PRES   REMARKS
ANTIGO         SUNNY     62  49  61 SW5       30.20F
STURGEON BAY   SUNNY     64  50  59 NW8       30.20F
GREEN BAY      SUNNY     66  51  58 CALM      30.19F
MANITOWOC      SUNNY     64  47  53 VRB5      30.20F
APPLETON       SUNNY     63  48  59 CALM      30.20F
CLINTONVILLE   SUNNY     63  52  67 CALM      30.20S
OSHKOSH        SUNNY     67  53  61 CALM      30.19F
$$

WIZ032>034-041-042-053>061-241500-
SOUTHWEST WISCONSIN

CITY           SKY/WX    TMP DP  RH WIND       PRES   REMARKS
LA CROSSE      SUNNY     69  57  65 SE5       30.16S
SPARTA         SUNNY     64  54  68 SW3       30.18S
VIROQUA        FAIR      65  52  63 S6        30.18F
BOSCOBEL       SUNNY     68  52  56 VRB3      30.18F
PRAIRIE DU CHI SUNNY     65  54  67 SE5       30.17F
PLATTEVILLE    FAIR      64  53  68 SE5       30.19F
$$

WIZ056-057-062-063-064-067-068-241500-
SOUTH CENTRAL WISCONSIN

CITY           SKY/WX    TMP DP  RH WIND       PRES   REMARKS
BARABOO/DELLS  MOSUNNY   62  50  64 CALM      30.19F
LONE ROCK      SUNNY     69  55  60 E6        30.19F
WATERTOWN      SUNNY     64  53  69 E6        30.19F
MADISON        MOSUNNY   67  51  56 SE6       30.19S
MIDDLETON      FAIR      66  52  60 CALM      30.20S
MONROE         SUNNY     63  52  67 E6        30.19S
JANESVILLE     MOSUNNY   64  50  59 E7        30.18S
$$

WIZ051-052-058>065-066-070>072-241500-
SOUTHEAST WISCONSIN

CITY           SKY/WX    TMP DP  RH WIND       PRES   REMARKS
MILWAUKEE      SUNNY     64  52  64 NE8       30.20S
WAUKESHA       SUNNY     63  48  59 NE6       30.20F
MILWAUKEE/TIMM SUNNY     63  48  59 NE5       30.21S
RACINE         SUNNY     64  56  75 N9        30.21F
BURLINGTON     SUNNY     63  52  68 E7        30.19F
KENOSHA        SUNNY     65  55  70 NE7       30.20S
FOND DU LAC    SUNNY     66  52  60 VRB5      30.20S
SHEBOYGAN      SUNNY     65  52  62 MISG      30.20S
WEST BEND      SUNNY     61  50  67 CALM      30.20S
JUNEAU         SUNNY     63  48  59 E6        30.21S
$$

LSZ147-162-241500-
LAKE SUPERIOR

STATION/POSITION TIME  TEMP    WIND        PRES    WAVE
                       AIR SEA DIR/SP/G            HT/PER
                 (UTC) (F)     (DEG/KT/KT) (MB)    (FT/S)
$$

LMZ867-665-643>646-241500-
LAKE MICHIGAN

STATION/POSITION TIME  TEMP    WIND        PRES    WAVE
                       AIR SEA DIR/SP/G            HT/PER
                 (UTC) (F)     (DEG/KT/KT) (MB)    (FT/S)
$$

TC  - TEMPERATURE IN CELSIUS
VSB - VISIBILITY IN STATUTE MILES
WCI - WIND CHILL INDEX
HX  - HEAT INDEX




USA.gov is the U.S. government's official web portal to all federal, state and local government web resources and services.